Stündliche Wetter Catu

Heute, 22 Oktober, Donnerstag

Zeit Temperatur Niederschläge Wind Luftdruck Luftfeuchtigkeit
00:00 +23°C° 0 mm 1 m/S 753 mmHg 98%
01:00 +23°C° 0 mm 1 m/S 752 mmHg 98%
02:00 +23°C° 0 mm 1 m/S 752 mmHg 98%
03:00 +23°C° 0 mm 1 m/S 752 mmHg 98%
04:00 +23°C° 0 mm 1 m/S 752 mmHg 97%
05:00 +24°C° 0 mm 1 m/S 752 mmHg 95%
06:00 +24°C° 0 mm 1 m/S 753 mmHg 94%
07:00 +27°C° 0.1 mm 1 m/S 753 mmHg 82%
08:00 +29°C° 0.1 mm 2 m/S 753 mmHg 70%
09:00 +31°C° 0.1 mm 3 m/S 753 mmHg 58%
10:00 +33°C° 0 mm 3 m/S 753 mmHg 55%
11:00 +34°C° 0 mm 3 m/S 753 mmHg 52%
12:00 +34°C° 0 mm 3 m/S 753 mmHg 48%
13:00 +34°C° 0 mm 3 m/S 752 mmHg 50%
14:00 +33°C° 0 mm 4 m/S 751 mmHg 52%
15:00 +32°C° 0 mm 4 m/S 751 mmHg 54%
16:00 +30°C° 0 mm 3 m/S 751 mmHg 61%
17:00 +28°C° 0 mm 3 m/S 752 mmHg 69%
18:00 +26°C° 0 mm 2 m/S 752 mmHg 76%
19:00 +25°C° 0 mm 2 m/S 752 mmHg 82%
20:00 +24°C° 0 mm 2 m/S 753 mmHg 88%
21:00 +23°C° 0 mm 1 m/S 753 mmHg 94%
22:00 +23°C° 0 mm 1 m/S 753 mmHg 95%
23:00 +22°C° 0 mm 1 m/S 753 mmHg 96%

Morgen, 23 Oktober, Freitag

Zeit Temperatur Niederschläge Wind Luftdruck Luftfeuchtigkeit
00:00 +22°C° 0 mm 1 m/S 752 mmHg 97%
01:00 +22°C° 0 mm 1 m/S 752 mmHg 97%
02:00 +22°C° 0 mm 1 m/S 752 mmHg 97%
03:00 +22°C° 0 mm 1 m/S 752 mmHg 97%
04:00 +22°C° 0 mm 1 m/S 752 mmHg 96%
05:00 +23°C° 0 mm 1 m/S 753 mmHg 94%
06:00 +21°C° 0 mm 0 m/S 753 mmHg 92%
07:00 +26°C° 0 mm 1 m/S 753 mmHg 81%
08:00 +28°C° 0 mm 2 m/S 754 mmHg 70%
09:00 +30°C° 0 mm 3 m/S 754 mmHg 59%
10:00 +30°C° 0.1 mm 3 m/S 753 mmHg 58%
11:00 +31°C° 0.1 mm 3 m/S 753 mmHg 56%
12:00 +31°C° 0.1 mm 3 m/S 753 mmHg 55%
13:00 +31°C° 0 mm 3 m/S 752 mmHg 54%
14:00 +31°C° 0 mm 3 m/S 751 mmHg 53%
15:00 +32°C° 0 mm 4 m/S 751 mmHg 52%
16:00 +29°C° 0 mm 3 m/S 751 mmHg 60%
17:00 +27°C° 0 mm 3 m/S 751 mmHg 68%
18:00 +25°C° 0 mm 2 m/S 752 mmHg 77%
19:00 +25°C° 0 mm 2 m/S 752 mmHg 83%
20:00 +24°C° 0 mm 2 m/S 753 mmHg 90%
21:00 +23°C° 0 mm 1 m/S 753 mmHg 96%
22:00 +23°C° 0 mm 1 m/S 753 mmHg 97%
23:00 +23°C° 0 mm 1 m/S 752 mmHg 98%

übermorgen, 24 Oktober, Samstag

Zeit Temperatur Niederschläge Wind Luftdruck Luftfeuchtigkeit
00:00 +23°C° 0 mm 1 m/S 752 mmHg 98%
01:00 +23°C° 0 mm 1 m/S 751 mmHg 98%
02:00 +23°C° 0 mm 1 m/S 751 mmHg 98%
03:00 +21°C° 0 mm 0 m/S 751 mmHg 98%
04:00 +21°C° 0 mm 0 m/S 751 mmHg 97%
05:00 +22°C° 0 mm 0 m/S 752 mmHg 95%
06:00 +22°C° 0 mm 0 m/S 752 mmHg 93%
07:00 +26°C° 0.5 mm 1 m/S 752 mmHg 87%
08:00 +27°C° 0.5 mm 2 m/S 753 mmHg 82%
09:00 +29°C° 0.5 mm 2 m/S 753 mmHg 76%
10:00 +30°C° 0.7 mm 3 m/S 752 mmHg 70%
11:00 +31°C° 0.7 mm 3 m/S 752 mmHg 65%
12:00 +33°C° 0.7 mm 3 m/S 752 mmHg 60%
13:00 +33°C° 0.3 mm 3 m/S 751 mmHg 59%
14:00 +33°C° 0.3 mm 3 m/S 750 mmHg 57%
15:00 +33°C° 0.3 mm 4 m/S 750 mmHg 56%
16:00 +30°C° 0 mm 3 m/S 750 mmHg 63%
17:00 +28°C° 0 mm 3 m/S 750 mmHg 70%
18:00 +26°C° 0 mm 3 m/S 750 mmHg 77%
19:00 +25°C° 0 mm 3 m/S 751 mmHg 82%
20:00 +25°C° 0 mm 2 m/S 751 mmHg 87%
21:00 +24°C° 0 mm 2 m/S 751 mmHg 92%
22:00 +24°C° 0 mm 2 m/S 751 mmHg 94%
23:00 +23°C° 0 mm 2 m/S 751 mmHg 95%

, 25 Oktober, Sonntag

Zeit Temperatur Niederschläge Wind Luftdruck Luftfeuchtigkeit
00:00 +23°C° 0 mm 1 m/S 750 mmHg 97%
01:00 +23°C° 0 mm 1 m/S 750 mmHg 97%
02:00 +23°C° 0 mm 1 m/S 750 mmHg 97%
03:00 +22°C° 0 mm 1 m/S 749 mmHg 97%
04:00 +23°C° 0 mm 1 m/S 750 mmHg 96%
05:00 +21°C° 0 mm 0 m/S 750 mmHg 94%
06:00 +22°C° 0 mm 0 m/S 751 mmHg 92%
07:00 +26°C° 0.1 mm 1 m/S 751 mmHg 82%
08:00 +28°C° 0.1 mm 2 m/S 751 mmHg 72%
09:00 +30°C° 0.1 mm 2 m/S 751 mmHg 61%
10:00 +31°C° 0.1 mm 2 m/S 751 mmHg 58%
11:00 +32°C° 0.1 mm 2 m/S 750 mmHg 54%
12:00 +34°C° 0.1 mm 2 m/S 750 mmHg 51%
13:00 +34°C° 0.1 mm 2 m/S 749 mmHg 53%
14:00 +33°C° 0.1 mm 3 m/S 749 mmHg 55%
15:00 +33°C° 0.1 mm 3 m/S 748 mmHg 57%
16:00 +30°C° 0 mm 3 m/S 748 mmHg 64%
17:00 +29°C° 0 mm 3 m/S 748 mmHg 72%
18:00 +27°C° 0 mm 3 m/S 749 mmHg 79%
19:00 +26°C° 0 mm 3 m/S 749 mmHg 82%
20:00 +25°C° 0 mm 3 m/S 749 mmHg 86%
21:00 +25°C° 0 mm 2 m/S 750 mmHg 89%
22:00 +25°C° 0 mm 3 m/S 749 mmHg 90%
23:00 +25°C° 0 mm 3 m/S 749 mmHg 90%

25 Oktober, Sonntag

Zeit Temperatur Niederschläge Wind Luftdruck Luftfeuchtigkeit
00:00 +23°C° 0 mm 1 m/S 750 mmHg 97%
01:00 +23°C° 0 mm 1 m/S 750 mmHg 97%
02:00 +23°C° 0 mm 1 m/S 750 mmHg 97%
03:00 +22°C° 0 mm 1 m/S 749 mmHg 97%
04:00 +23°C° 0 mm 1 m/S 750 mmHg 96%
05:00 +21°C° 0 mm 0 m/S 750 mmHg 94%
06:00 +22°C° 0 mm 0 m/S 751 mmHg 92%
07:00 +26°C° 0.1 mm 1 m/S 751 mmHg 82%
08:00 +28°C° 0.1 mm 2 m/S 751 mmHg 72%
09:00 +30°C° 0.1 mm 2 m/S 751 mmHg 61%
10:00 +31°C° 0.1 mm 2 m/S 751 mmHg 58%
11:00 +32°C° 0.1 mm 2 m/S 750 mmHg 54%
12:00 +34°C° 0.1 mm 2 m/S 750 mmHg 51%
13:00 +34°C° 0.1 mm 2 m/S 749 mmHg 53%
14:00 +33°C° 0.1 mm 3 m/S 749 mmHg 55%
15:00 +33°C° 0.1 mm 3 m/S 748 mmHg 57%
16:00 +30°C° 0 mm 3 m/S 748 mmHg 64%
17:00 +29°C° 0 mm 3 m/S 748 mmHg 72%
18:00 +27°C° 0 mm 3 m/S 749 mmHg 79%
19:00 +26°C° 0 mm 3 m/S 749 mmHg 82%
20:00 +25°C° 0 mm 3 m/S 749 mmHg 86%
21:00 +25°C° 0 mm 2 m/S 750 mmHg 89%
22:00 +25°C° 0 mm 3 m/S 749 mmHg 90%
23:00 +25°C° 0 mm 3 m/S 749 mmHg 90%

26 Oktober, Montag

Zeit Temperatur Niederschläge Wind Luftdruck Luftfeuchtigkeit
00:00 +25°C° 0 mm 3 m/S 749 mmHg 90%
01:00 +24°C° 0 mm 2 m/S 749 mmHg 92%
02:00 +24°C° 0 mm 2 m/S 748 mmHg 94%
03:00 +24°C° 0 mm 1 m/S 748 mmHg 96%
04:00 +24°C° 0 mm 2 m/S 748 mmHg 93%
05:00 +25°C° 0 mm 2 m/S 749 mmHg 91%
06:00 +25°C° 0 mm 2 m/S 749 mmHg 89%
07:00 +27°C° 0 mm 2 m/S 749 mmHg 82%
08:00 +28°C° 0 mm 2 m/S 750 mmHg 76%
09:00 +29°C° 0 mm 3 m/S 750 mmHg 69%
10:00 +30°C° 0 mm 2 m/S 749 mmHg 65%
11:00 +31°C° 0 mm 2 m/S 749 mmHg 61%
12:00 +34°C° 0 mm 2 m/S 748 mmHg 56%
13:00 +34°C° 0 mm 2 m/S 748 mmHg 56%
14:00 +34°C° 0 mm 2 m/S 747 mmHg 56%
15:00 +34°C° 0 mm 3 m/S 746 mmHg 55%
16:00 +31°C° 0.1 mm 3 m/S 746 mmHg 64%
17:00 +29°C° 0.1 mm 4 m/S 747 mmHg 72%
18:00 +27°C° 0.1 mm 4 m/S 747 mmHg 81%
19:00 +26°C° 0.6 mm 3 m/S 747 mmHg 85%
20:00 +25°C° 0.6 mm 3 m/S 748 mmHg 90%
21:00 +25°C° 0.6 mm 2 m/S 749 mmHg 94%
22:00 +25°C° 0.7 mm 1 m/S 749 mmHg 95%
23:00 +25°C° 0.7 mm 1 m/S 749 mmHg 95%

27 Oktober, Dienstag

Zeit Temperatur Niederschläge Wind Luftdruck Luftfeuchtigkeit
00:00 +25°C° 0.7 mm 1 m/S 749 mmHg 96%
01:00 +25°C° 0.2 mm 1 m/S 748 mmHg 95%
02:00 +25°C° 0.2 mm 2 m/S 748 mmHg 94%
03:00 +24°C° 0.2 mm 3 m/S 748 mmHg 93%
04:00 +25°C° 0 mm 2 m/S 748 mmHg 93%
05:00 +25°C° 0 mm 1 m/S 749 mmHg 93%
06:00 +23°C° 0 mm 0 m/S 749 mmHg 93%
07:00 +26°C° 0 mm 1 m/S 749 mmHg 85%
08:00 +28°C° 0 mm 2 m/S 750 mmHg 77%
09:00 +29°C° 0 mm 3 m/S 750 mmHg 69%
10:00 +31°C° 0 mm 2 m/S 749 mmHg 62%
11:00 +34°C° 0 mm 2 m/S 749 mmHg 55%
12:00 +35°C° 0 mm 2 m/S 748 mmHg 48%
13:00 +34°C° 0.2 mm 2 m/S 748 mmHg 55%
14:00 +31°C° 0.2 mm 2 m/S 747 mmHg 62%
15:00 +30°C° 0.2 mm 3 m/S 747 mmHg 69%
16:00 +29°C° 0.1 mm 2 m/S 747 mmHg 72%
17:00 +28°C° 0.1 mm 2 m/S 747 mmHg 75%
18:00 +27°C° 0.1 mm 2 m/S 747 mmHg 79%
19:00 +26°C° 1.3 mm 2 m/S 748 mmHg 84%
20:00 +25°C° 1.3 mm 2 m/S 748 mmHg 89%
21:00 +25°C° 1.3 mm 2 m/S 749 mmHg 94%
22:00 +25°C° 0.1 mm 2 m/S 749 mmHg 93%
23:00 +25°C° 0.1 mm 3 m/S 749 mmHg 93%
Mehr zeigen